RH
13 11 10 10 10 10 11 12 14 15 20 26 28 33 30 28 27 24 22 20 18 17 16 16 17 18 18 18 18 18 18 17 16 16 16 17 19 19 18 16 14 10 8
16 13 11 11 10 10 11 13 14 18 21 26 30 35 30 29 28 25 22 19 17 16 16 16 16 15 15 15 16 16 17 18 19 20 21 21 19 18 18 19 16 15 13
23 17 14 12 11 11 12 14 17 20 25 31 39 38 32 30 26 22 20 19 18 17 16 15 15 16 15 16 15 16 17 19 20 20 20 20 21 23 25 24 21 18 15
30 18 14 13 11 12 13 17 19 24 37 46 41 36 29 28 26 24 21 19 19 19 18 17 17 16 16 15 16 17 19 20 21 21 22 22 22 21 20 22 29 28 25
29 16 14 12 12 13 15 18 22 26 40 48 38 32 30 28 27 26 23 20 20 20 18 17 16 16 16 16 18 19 20 20 20 19 19 19 19 19 20 19 19 21 30
22 15 13 12 13 14 17 22 27 31 45 51 45 36 32 30 29 28 26 23 23 23 21 19 19 17 16 16 17 17 18 17 16 16 16 15 15 14 15 16 16 17 17
18 15 14 13 14 15 19 28 33 44 50 51 49 42 36 36 35 34 35 31 29 29 27 25 22 19 18 18 17 17 16 15 14 13 10 10 10 8 8 7 10 14 15
19 18 15 14 15 16 22 30 38 46 49 50 47 45 43 43 42 40 40 37 33 31 30 28 24 21 18 17 17 17 15 14 11 8 8 6 4 3 2 3 5 6 9
22 16 16 15 16 17 24 30 40 50 49 48 48 44 40 41 40 46 45 42 38 34 31 27 24 20 18 17 17 15 13 9 6 4 2 2 2 2 2 2 2 1 3
21 19 17 17 17 18 23 31 37 47 55 51 49 46 44 40 32 30 42 42 43 38 33 28 23 21 18 17 16 10 6 4 2 2 3 3 3 3 2 2 2 2 2
19 18 19 19 19 20 24 29 38 54 58 55 53 50 50 45 40 34 30 32 38 36 33 29 24 21 18 16 10 6 3 2 2 4 4 5 5 4 4 3 2 2 2
23 21 20 24 29 29 33 36 54 64 67 62 55 54 55 48 49 42 34 33 33 36 32 28 23 18 13 10 5 3 2 3 5 9 16 14 20 10 7 4 2 2 2
25 22 24 27 30 34 36 60 68 71 73 63 56 60 60 56 53 45 38 37 33 33 28 25 19 13 9 4 3 2 4 6 26 41 46 43 53 48 41 19 7 3 2
39 23 32 31 29 40 70 73 70 75 73 66 62 66 66 62 57 46 44 40 34 30 26 22 16 11 6 4 2 4 6 14 45 36 21 36 47 48 46 51 47 13 4
21 28 34 42 56 70 71 69 72 75 72 70 72 72 69 66 57 50 49 42 34 27 22 19 14 9 5 3 5 8 8 36 29 24 34 34 32 20 27 37 50 58 36
27 43 67 69 66 67 66 68 69 68 72 74 76 78 74 64 56 53 47 39 32 25 19 17 12 8 5 3 16 10 9 36 33 38 39 42 46 32 30 20 34 50 64
56 68 71 69 67 66 69 68 65 69 78 83 83 82 69 58 59 53 44 36 31 25 20 14 10 6 3 5 21 10 18 34 36 39 48 37 34 48 45 40 34 30 36
64 73 73 69 64 62 66 63 57 68 82 89 82 75 62 62 60 50 40 36 30 26 19 11 9 4 4 24 23 9 27 35 38 43 36 46 54 78 92 97 89 61 55
71 74 74 74 63 62 61 59 61 80 87 84 82 69 67 64 56 45 38 36 30 23 17 11 7 3 9 33 28 9 28 36 38 36 42 46 57 88 100 100 100 100 100
62 69 77 78 66 64 61 59 75 92 89 85 72 68 69 60 51 39 38 35 26 20 13 7 4 3 14 38 38 7 26 37 40 34 40 43 64 87 100 96 77 88 100
68 84 83 68 69 65 58 79 89 94 88 76 72 73 66 57 45 38 38 32 24 17 11 6 3 3 13 38 36 8 23 39 43 33 35 55 71 89 100 100 100 100 100
92 77 69 71 70 59 75 88 95 97 83 74 77 73 64 52 41 41 37 27 22 14 8 5 3 4 23 43 36 8 24 38 42 46 35 58 70 100 100 100 100 100 100
75 71 75 73 64 71 92 91 98 94 81 76 79 66 58 46 40 37 33 26 17 9 5 3 3 14 29 42 35 9 27 35 41 38 40 66 98 100 100 100 100 100 100
74 78 77 65 66 90 96 97 100 86 76 78 71 62 54 42 39 35 30 23 14 7 4 3 4 26 35 35 35 8 28 32 38 40 43 62 95 100 100 100 100 100 100
83 82 64 77 90 100 100 100 91 77 76 76 67 65 52 43 39 33 27 17 10 6 4 3 16 37 38 37 33 9 26 28 31 42 46 60 87 92 100 100 100 100 100
94 72 88 96 100 100 100 100 80 74 72 68 70 64 52 46 39 32 22 13 9 5 4 4 27 39 35 42 36 9 21 26 27 40 54 69 95 94 93 100 100 100 89
Wind_Speed
28 28 27 26 26 26 29 31 32 34 36 38 40 41 40 39 37 37 38 38 40 42 44 44 45 47 49 51 53 55 57 60 62 64 66 68 69 70 70 69 68 66 65
29 29 28 28 27 28 31 33 34 36 39 41 43 42 41 39 38 39 40 41 42 43 43 44 45 48 51 54 56 59 62 64 66 68 70 72 74 76 77 77 76 74 73
30 30 29 29 29 30 32 34 36 38 41 43 44 43 42 41 42 43 42 41 42 43 44 46 49 51 54 57 60 64 66 69 71 74 77 79 80 81 82 83 84 83 80
30 29 29 29 30 32 34 36 38 39 41 44 44 43 43 43 42 41 42 43 45 46 48 51 53 56 59 62 65 68 71 74 77 80 84 87 88 89 90 89 89 90 88
31 30 30 30 32 34 36 38 40 41 43 46 44 43 43 43 43 45 45 47 48 49 51 54 57 60 63 67 69 72 75 78 82 85 88 91 93 96 98 97 95 94 93
31 32 31 32 33 35 37 40 41 42 44 46 45 44 43 45 46 47 49 50 52 54 56 60 63 66 69 72 75 78 82 85 90 92 93 93 95 98 103 106 106 104 100
33 32 33 35 35 38 39 41 43 45 47 47 47 47 47 48 49 51 53 56 57 58 60 63 67 71 74 77 80 84 87 91 93 92 93 96 100 102 106 107 109 112 111
33 35 35 35 37 39 40 42 46 48 49 49 49 48 49 50 49 52 54 57 58 60 63 67 72 75 79 83 86 89 92 96 96 100 105 109 112 116 114 114 118 118 116
36 37 36 37 40 41 43 46 48 50 51 52 52 53 54 54 54 53 56 58 60 63 67 72 77 81 85 89 91 91 95 99 103 108 108 100 90 84 84 87 94 108 119
38 36 37 40 42 43 46 49 52 55 56 55 55 56 58 60 61 60 58 60 61 65 70 76 82 86 91 94 92 92 99 103 104 95 81 74 71 70 68 69 73 80 89
37 35 39 42 43 45 49 52 54 57 58 58 58 59 61 62 65 66 66 65 64 69 74 76 84 88 92 94 91 97 103 101 84 72 66 63 58 57 56 58 61 67 74
36 38 40 43 45 48 50 53 56 58 59 59 59 62 63 63 65 68 69 69 69 68 73 75 81 84 87 93 96 99 94 74 64 56 49 49 47 45 45 44 48 55 63
37 39 42 44 47 49 52 54 57 59 61 62 62 64 65 65 67 69 71 71 71 71 72 73 79 85 91 97 99 94 74 59 48 42 42 41 42 41 37 35 35 41 50
41 40 43 46 49 51 54 56 57 61 63 63 65 66 67 66 68 69 69 70 71 72 71 75 79 88 95 101 99 79 58 47 41 40 41 39 39 39 36 33 30 29 37
41 42 45 48 50 51 53 56 60 63 64 64 66 66 65 65 66 67 68 70 73 74 72 75 81 89 97 99 81 65 48 40 41 40 43 44 43 40 39 33 29 26 24
42 45 47 46 46 49 52 55 59 62 64 65 66 65 65 65 64 65 66 68 70 73 74 76 83 90 98 90 65 57 44 39 42 45 50 49 44 43 40 36 33 28 26
43 44 44 44 47 50 52 56 59 61 64 66 65 64 62 62 62 63 65 66 69 73 75 77 85 93 91 73 59 52 41 40 45 50 48 37 30 28 28 29 31 32 32
45 43 44 47 50 52 55 59 62 63 65 65 63 60 59 59 61 62 64 65 69 74 79 80 85 92 73 59 58 48 37 40 46 48 30 18 19 21 22 24 25 26 30
46 46 47 50 52 55 58 60 61 61 62 62 59 57 58 58 59 61 62 64 69 74 82 86 86 87 57 54 56 44 36 39 45 33 20 22 24 27 31 33 32 30 35
48 49 51 52 54 57 59 59 59 59 58 57 56 56 56 58 58 60 61 64 68 74 80 84 90 81 52 51 55 43 30 37 40 32 25 27 30 33 36 37 40 43 35
47 51 51 54 57 59 59 58 57 55 54 54 54 55 55 57 59 60 61 64 70 75 81 85 86 70 48 48 51 38 32 34 31 34 28 30 37 38 43 41 45 47 35
49 51 52 56 60 60 59 57 55 52 54 53 53 54 55 57 58 58 60 64 71 77 81 88 79 58 45 47 48 36 30 32 20 34 33 27 36 38 39 40 44 42 38
50 51 53 58 62 60 58 57 52 54 53 53 53 53 54 56 56 57 59 64 71 77 84 85 73 49 45 48 48 34 28 29 27 31 36 28 36 34 39 41 47 45 40
50 52 56 60 62 58 57 54 50 54 53 52 52 54 54 55 56 57 59 62 68 74 81 79 59 44 46 47 47 34 25 22 24 34 37 26 33 36 37 43 53 36 29
51 54 58 60 57 55 55 51 53 53 52 52 53 54 54 54 55 57 59 61 66 74 76 66 46 46 48 47 44 31 25 23 23 27 39 34 36 40 45 48 53 28 24
52 55 59 56 54 56 50 50 55 50 50 51 52 53 54 54 54 56 59 62 67 73 73 51 37 43 45 49 43 29 24 22 27 24 40 40 40 45 51 50 41 19 16
Wind_Direction
276 276 277 280 286 291 293 296 298 299 299 302 304 305 306 304 301 299 296 292 289 285 284 283 282 280 278 276 274 273 272 271 269 267 266 266 266 266 262 260 258 256 254
275 276 277 281 288 292 295 298 300 300 301 303 305 306 305 302 299 298 296 293 290 289 287 285 283 281 280 279 278 278 277 276 274 272 270 267 265 264 263 262 259 255 253
276 278 280 284 289 294 296 297 300 302 303 304 304 304 304 303 302 298 296 294 293 292 291 288 286 285 283 281 280 279 277 276 275 274 273 271 269 266 263 261 260 258 254
279 281 282 285 290 292 294 297 299 301 306 309 307 306 305 304 301 298 297 296 295 294 293 292 291 290 289 287 286 284 283 281 278 275 272 271 269 267 265 262 259 257 257
281 281 283 285 287 291 294 296 300 302 305 309 308 305 305 305 303 301 299 296 295 294 294 293 292 291 289 287 287 286 284 282 279 276 274 272 269 267 265 263 261 257 254
281 282 284 283 287 289 293 297 299 302 304 305 306 307 307 304 303 302 300 298 298 298 297 295 294 293 291 290 290 290 288 286 283 280 278 276 273 270 267 263 260 257 254
279 283 282 283 286 288 291 295 302 302 303 303 304 305 306 306 306 306 304 302 301 299 298 297 296 296 295 294 294 293 292 290 289 289 287 284 279 273 269 265 261 256 254
284 281 282 285 286 287 291 298 301 301 302 303 303 302 302 304 304 304 303 301 301 301 302 301 300 299 298 297 299 300 298 298 298 297 293 289 284 279 273 264 257 254 251
281 283 286 285 286 288 292 296 299 302 301 302 304 304 303 302 302 306 306 304 304 305 305 304 303 302 301 301 304 305 304 303 303 299 296 292 285 278 271 265 257 249 245
281 286 286 286 288 289 293 295 298 301 302 303 304 305 305 303 302 302 305 306 309 309 308 308 306 306 305 306 310 309 306 307 305 299 294 290 285 280 274 267 260 253 246
283 286 286 288 290 291 292 294 297 300 302 302 304 305 305 305 305 304 305 306 310 311 310 312 310 311 312 313 312 311 310 309 302 298 295 293 290 285 281 273 264 254 245
284 284 286 288 291 291 293 294 297 299 301 303 304 306 306 306 306 306 307 308 309 313 314 317 315 316 315 314 315 315 311 304 299 298 298 298 300 298 290 282 269 258 246
283 282 284 287 289 291 292 294 296 299 301 303 304 306 307 308 309 309 309 310 312 314 316 319 317 316 316 318 319 316 310 303 296 300 302 300 302 305 305 300 292 267 250
279 280 283 286 287 290 292 293 296 299 302 303 305 308 309 309 310 310 311 312 313 316 319 319 318 318 318 321 320 316 306 295 292 297 300 300 299 300 300 301 301 293 259
275 277 282 286 289 291 293 296 298 300 303 304 306 307 309 310 311 312 313 315 316 318 322 319 319 319 320 322 316 315 303 288 300 301 302 302 296 291 288 289 290 289 283
273 280 283 285 288 292 295 297 299 301 303 305 306 308 309 310 311 312 314 317 318 320 323 321 321 322 322 320 315 313 302 293 303 302 304 300 293 286 282 281 276 274 270
272 278 280 283 289 294 297 299 300 303 304 306 307 309 309 310 311 313 317 317 318 321 323 325 324 325 323 316 318 312 299 299 302 306 304 296 292 290 283 278 273 266 261
273 275 278 285 290 295 296 298 301 304 304 307 308 308 309 310 312 316 317 317 320 322 322 325 326 326 321 314 320 311 298 301 307 310 300 289 290 296 299 296 284 272 262
271 276 281 285 291 294 297 301 303 305 306 306 306 308 309 310 314 317 317 318 321 323 324 326 328 326 318 313 320 309 296 303 313 304 282 280 286 295 300 308 303 298 290
269 276 281 287 291 295 299 303 305 305 305 306 307 308 309 312 316 317 318 320 321 322 324 327 328 324 315 315 317 310 294 306 315 288 279 286 288 293 306 312 312 308 287
270 277 283 288 293 297 301 306 305 303 305 307 308 308 311 314 316 317 319 321 322 324 326 329 328 322 316 317 318 308 298 309 308 281 277 287 292 295 308 308 302 295 281
273 280 286 291 294 299 303 304 302 302 306 307 307 308 312 314 317 319 321 322 323 325 326 329 327 320 320 318 320 306 296 311 294 283 287 296 306 312 305 306 304 293 276
278 284 289 293 296 300 299 301 298 304 306 306 307 310 312 313 317 319 321 325 326 326 329 328 326 318 322 320 321 304 297 310 300 283 284 299 306 315 315 313 308 295 280
280 287 290 292 297 296 295 297 298 305 306 306 308 309 311 315 316 319 322 325 325 328 329 327 321 316 317 319 319 308 294 306 294 289 288 301 309 316 317 316 314 302 261
284 287 289 293 291 289 293 294 302 305 306 307 307 308 312 314 316 319 323 325 327 330 329 323 315 316 316 323 320 310 294 295 294 301 290 305 309 312 320 319 317 290 259
284 286 291 286 283 288 289 294 303 306 307 305 305 308 311 313 317 320 324 327 329 330 331 322 308 311 313 318 322 308 296 298 296 304 297 300 313 318 318 325 317 264 246